• In Czech Republic
  • List of Countries
  • For 7 days
  • Water Temperature
  • Satellite Maps
  • Weather Map
  • Weather Widgets
  • user-avatar
    Login

    Hourly Weather Jegliniszki

    Today, 23 September, Sunday

    Time Temperature Precipitation Wind Pressure Humidity
    00:00 +7°C° 0 mm 4 mps 737 mmHg 82%
    01:00 +7°C° 0 mm 4 mps 737 mmHg 81%
    02:00 +6°C° 0 mm 4 mps 737 mmHg 82%
    03:00 +6°C° 0 mm 4 mps 737 mmHg 82%
    04:00 +6°C° 0 mm 4 mps 736 mmHg 82%
    05:00 +6°C° 0 mm 5 mps 736 mmHg 82%
    06:00 +7°C° 0 mm 5 mps 736 mmHg 81%
    07:00 +7°C° 0 mm 5 mps 736 mmHg 79%
    08:00 +8°C° 0 mm 6 mps 736 mmHg 76%
    09:00 +9°C° 0 mm 6 mps 736 mmHg 71%
    10:00 +10°C° 0 mm 7 mps 736 mmHg 65%
    11:00 +12°C° 0 mm 7 mps 736 mmHg 60%
    12:00 +13°C° 0 mm 6 mps 736 mmHg 58%
    13:00 +14°C° 0 mm 6 mps 736 mmHg 56%
    14:00 +14°C° 0 mm 6 mps 736 mmHg 54%
    15:00 +14°C° 0.1 mm 5 mps 736 mmHg 56%
    16:00 +13°C° 0.1 mm 4 mps 735 mmHg 59%
    17:00 +13°C° 0.1 mm 4 mps 735 mmHg 61%
    18:00 +12°C° 0 mm 3 mps 735 mmHg 66%
    19:00 +10°C° 0 mm 3 mps 734 mmHg 70%
    20:00 +9°C° 0 mm 2 mps 734 mmHg 75%
    21:00 +9°C° 0 mm 2 mps 733 mmHg 77%
    22:00 +9°C° 0 mm 2 mps 733 mmHg 79%
    23:00 +8°C° 0 mm 2 mps 732 mmHg 81%

    Tomorrow, 24 September, Monday

    Time Temperature Precipitation Wind Pressure Humidity
    00:00 +9°C° 0.5 mm 1 mps 732 mmHg 84%
    01:00 +9°C° 0.5 mm 1 mps 731 mmHg 87%
    02:00 +9°C° 0.5 mm 1 mps 730 mmHg 90%
    03:00 +9°C° 0.8 mm 1 mps 730 mmHg 91%
    04:00 +8°C° 0.8 mm 2 mps 729 mmHg 91%
    05:00 +7°C° 0.8 mm 3 mps 729 mmHg 91%
    06:00 +7°C° 0.4 mm 3 mps 729 mmHg 91%
    07:00 +8°C° 0.4 mm 3 mps 730 mmHg 91%
    08:00 +8°C° 0.4 mm 3 mps 730 mmHg 91%
    09:00 +8°C° 0.3 mm 4 mps 731 mmHg 84%
    10:00 +9°C° 0.3 mm 5 mps 731 mmHg 77%
    11:00 +10°C° 0.3 mm 5 mps 732 mmHg 71%
    12:00 +11°C° 0.4 mm 6 mps 732 mmHg 68%
    13:00 +11°C° 0.4 mm 6 mps 733 mmHg 66%
    14:00 +11°C° 0.4 mm 6 mps 733 mmHg 63%
    15:00 +11°C° 0.5 mm 6 mps 734 mmHg 67%
    16:00 +10°C° 0.5 mm 6 mps 734 mmHg 70%
    17:00 +9°C° 0.5 mm 6 mps 735 mmHg 73%
    18:00 +8°C° 0.2 mm 6 mps 735 mmHg 76%
    19:00 +7°C° 0.2 mm 6 mps 736 mmHg 79%
    20:00 +6°C° 0.2 mm 5 mps 737 mmHg 82%
    21:00 +5°C° 0 mm 5 mps 738 mmHg 82%
    22:00 +5°C° 0 mm 5 mps 739 mmHg 82%
    23:00 +3°C° 0 mm 5 mps 740 mmHg 83%

    Day after tomorrow, 25 September, Tuesday

    Time Temperature Precipitation Wind Pressure Humidity
    00:00 +2°C° 0 mm 5 mps 740 mmHg 82%
    01:00 +2°C° 0 mm 5 mps 741 mmHg 82%
    02:00 +3°C° 0 mm 4 mps 742 mmHg 82%
    03:00 +3°C° 0 mm 4 mps 742 mmHg 81%
    04:00 +3°C° 0 mm 4 mps 742 mmHg 81%
    05:00 +3°C° 0 mm 4 mps 743 mmHg 81%
    06:00 +2°C° 0 mm 5 mps 743 mmHg 79%
    07:00 +3°C° 0 mm 5 mps 744 mmHg 76%
    08:00 +5°C° 0 mm 5 mps 744 mmHg 74%
    09:00 +5°C° 0.1 mm 6 mps 745 mmHg 70%
    10:00 +7°C° 0.1 mm 6 mps 745 mmHg 66%
    11:00 +8°C° 0.1 mm 7 mps 746 mmHg 61%
    12:00 +8°C° 0.2 mm 7 mps 746 mmHg 61%
    13:00 +8°C° 0.2 mm 7 mps 747 mmHg 61%
    14:00 +8°C° 0.2 mm 7 mps 747 mmHg 61%
    15:00 +8°C° 0.1 mm 6 mps 747 mmHg 62%
    16:00 +8°C° 0.1 mm 6 mps 748 mmHg 63%
    17:00 +7°C° 0.1 mm 5 mps 748 mmHg 65%
    18:00 +6°C° 0 mm 5 mps 749 mmHg 69%
    19:00 +5°C° 0 mm 4 mps 749 mmHg 74%
    20:00 +4°C° 0 mm 4 mps 750 mmHg 79%
    21:00 +3°C° 0 mm 3 mps 750 mmHg 81%
    22:00 +3°C° 0 mm 3 mps 751 mmHg 82%
    23:00 +2°C° 0 mm 3 mps 751 mmHg 84%

    26 September, Wednesday

    Time Temperature Precipitation Wind Pressure Humidity
    00:00 +2°C° 0 mm 3 mps 751 mmHg 84%
    01:00 +2°C° 0 mm 3 mps 751 mmHg 85%
    02:00 +2°C° 0 mm 3 mps 751 mmHg 85%
    03:00 +2°C° 0 mm 3 mps 751 mmHg 81%
    04:00 +2°C° 0 mm 3 mps 751 mmHg 78%
    05:00 +2°C° 0 mm 3 mps 751 mmHg 75%
    06:00 +3°C° 0 mm 4 mps 751 mmHg 70%
    07:00 +3°C° 0 mm 5 mps 750 mmHg 65%
    08:00 +5°C° 0 mm 5 mps 750 mmHg 60%
    09:00 +5°C° 0 mm 6 mps 750 mmHg 58%
    10:00 +7°C° 0 mm 6 mps 749 mmHg 56%
    11:00 +9°C° 0 mm 7 mps 749 mmHg 54%
    12:00 +9°C° 0 mm 7 mps 748 mmHg 55%
    13:00 +9°C° 0 mm 8 mps 748 mmHg 56%
    14:00 +10°C° 0 mm 8 mps 747 mmHg 57%
    15:00 +9°C° 0 mm 8 mps 746 mmHg 58%
    16:00 +9°C° 0 mm 7 mps 745 mmHg 60%
    17:00 +9°C° 0 mm 7 mps 745 mmHg 61%
    18:00 +8°C° 0.2 mm 7 mps 744 mmHg 65%
    19:00 +8°C° 0.2 mm 7 mps 744 mmHg 69%
    20:00 +6°C° 0.2 mm 8 mps 743 mmHg 73%
    21:00 +6°C° 0.2 mm 8 mps 743 mmHg 75%
    22:00 +6°C° 0.2 mm 8 mps 742 mmHg 78%
    23:00 +6°C° 0.2 mm 8 mps 742 mmHg 80%

    27 September, Thursday

    Time Temperature Precipitation Wind Pressure Humidity
    00:00 +7°C° 0.1 mm 8 mps 741 mmHg 80%
    01:00 +7°C° 0.1 mm 8 mps 740 mmHg 80%
    02:00 +7°C° 0.1 mm 8 mps 740 mmHg 80%
    03:00 +9°C° 0.2 mm 8 mps 740 mmHg 81%
    04:00 +9°C° 0.2 mm 8 mps 739 mmHg 82%
    05:00 +9°C° 0.2 mm 8 mps 739 mmHg 83%
    06:00 +10°C° 0.5 mm 8 mps 739 mmHg 85%
    07:00 +10°C° 0.5 mm 7 mps 739 mmHg 88%
    08:00 +11°C° 0.5 mm 7 mps 739 mmHg 90%
    09:00 +11°C° 0.6 mm 7 mps 739 mmHg 90%
    10:00 +12°C° 0.6 mm 7 mps 739 mmHg 91%
    11:00 +12°C° 0.6 mm 7 mps 739 mmHg 92%
    12:00 +13°C° 0.4 mm 6 mps 739 mmHg 91%
    13:00 +14°C° 0.4 mm 6 mps 740 mmHg 91%
    14:00 +14°C° 0.4 mm 6 mps 740 mmHg 90%
    15:00 +14°C° 0.4 mm 6 mps 740 mmHg 90%
    16:00 +14°C° 0.4 mm 6 mps 740 mmHg 89%
    17:00 +14°C° 0.4 mm 6 mps 739 mmHg 89%
    18:00 +14°C° 0.2 mm 6 mps 739 mmHg 90%
    19:00 +13°C° 0.2 mm 5 mps 739 mmHg 90%
    20:00 +13°C° 0.2 mm 5 mps 739 mmHg 91%
    21:00 +13°C° 0.1 mm 6 mps 739 mmHg 91%
    22:00 +13°C° 0.1 mm 6 mps 738 mmHg 91%
    23:00 +13°C° 0.1 mm 6 mps 738 mmHg 90%

    28 September, Friday

    Time Temperature Precipitation Wind Pressure Humidity
    00:00 +12°C° 0 mm 7 mps 737 mmHg 89%
    01:00 +12°C° 0 mm 7 mps 736 mmHg 88%
    02:00 +12°C° 0 mm 8 mps 736 mmHg 87%
    03:00 +12°C° 0.3 mm 8 mps 735 mmHg 87%
    04:00 +12°C° 0.3 mm 8 mps 735 mmHg 87%
    05:00 +12°C° 0.3 mm 8 mps 735 mmHg 87%
    06:00 +11°C° 0.4 mm 8 mps 736 mmHg 85%
    07:00 +10°C° 0.3 mm 7 mps 736 mmHg 83%
    08:00 +9°C° 0.3 mm 6 mps 737 mmHg 81%
    09:00 +10°C° 0 mm 6 mps 738 mmHg 75%
    10:00 +11°C° 0 mm 7 mps 739 mmHg 68%
    11:00 +12°C° 0 mm 7 mps 740 mmHg 62%
    12:00 +12°C° 0 mm 7 mps 740 mmHg 59%
    13:00 +12°C° 0 mm 7 mps 741 mmHg 56%
    14:00 +13°C° 0 mm 6 mps 741 mmHg 53%
    15:00 +11°C° 0 mm 6 mps 741 mmHg 55%
    16:00 +12°C° 0 mm 5 mps 742 mmHg 57%
    17:00 +11°C° 0 mm 4 mps 742 mmHg 60%
    18:00 +10°C° 0 mm 4 mps 743 mmHg 65%
    19:00 +8°C° 0 mm 3 mps 743 mmHg 70%
    20:00 +7°C° 0 mm 3 mps 744 mmHg 75%
    21:00 +5°C° 0 mm 3 mps 744 mmHg 78%
    22:00 +6°C° 0 mm 2 mps 745 mmHg 80%
    23:00 +5°C° 0 mm 2 mps 745 mmHg 83%
    Show more